Location: Gradaro
(45.0833°N, 10.8833°E)
Time: 06:30:29
(UTC+00:00)

FENGYUN 3A - Pass Details

Date: 29 November 2020
Orbit: 823 x 837 km, 98.4° (Epoch: 27 January)

Event Time Altitude Azimuth Distance (km) Brightness Sun altitude
Rises 04:51:51 0° 5° (N) 3,392 6.8 -17.3°
Reaches altitude 10° 04:54:26 10° 356° (N) 2,451 5.9 -16.9°
Maximum altitude 04:59:09 32° 295° (WNW) 1,410 4.3 -16.0°
Drops below altitude 10° 05:03:50 10° 234° (SW) 2,429 5.7 -15.2°
Sets 05:06:24 0° 225° (SW) 3,356 6.5 -14.8°
